Regional Weather Roundup
Issued by NWS

Home | Current Version | Previous Version | Graphics & Text | Print | Product List | Glossary On
Versions: 1 2 3 4 5 6 7 8 9 10 11 12 13 14 15 16 17 18 19 20 21 22 23 24 25 26 27 28 29 30 31 32 33 34 35 36 37 38 39 40 41 42 43 44 45 46 47 48 49 50
000
ASUS45 KSLC 170710
RWRUT

UTAH REGIONAL WEATHER ROUNDUP
NATIONAL WEATHER SERVICE SALT LAKE CITY UT
100 AM MDT WED SEP 17 2014

UTZ001>011-023>025-170800-

NORTHERN UTAH

CITY           SKY/WX    TMP DP  RH WIND       PRES   REMARKS
HILL AFB       CLEAR     71  42  34 SE16      30.00S
LOGAN          CLEAR     57  47  69 SE3       29.99F
OGDEN          CLEAR     70  43  37 S9        29.97
PROVO AIRPORT  CLEAR     64  45  48 CALM      30.02F
SALT LAKE CITY CLEAR     73  43  33 SE13      29.95
VERNAL         CLEAR     65  42  43 NW9       30.11
WENDOVER       CLEAR     70  39  32 NE3       29.94S
HEBER CITY     CLEAR     50  41  71 CALM      30.13S
WEST JORDAN    CLEAR     70  37  30 SW7       30.00F

$$

UTZ012>022-026-027-170800-

SOUTHERN UTAH

CITY           SKY/WX    TMP DP  RH WIND       PRES   REMARKS
BRYCE CANYON   CLOUDY    53  44  71 W5        30.30S
CEDAR CITY     MOCLDY    68  39  34 CALM      30.11
MILFORD        CLEAR     62  41  46 S7        30.04S
MOAB/CYNLANDS  CLEAR     67  41  38 W5        30.02F
PRICE          CLEAR     66  35  31 N5        30.14
ST GEORGE      SUNNY     84  55  37 SW10      29.96R
KANAB            N/A     72  48  43 CALM      30.14S

$$

REGIONAL REPORTS     COLORADO/ARIZONA

CITY           SKY/WX    TMP DP  RH WIND       PRES   REMARKS
CRAIG, CO      CLEAR     48  38  68 CALM      30.20
GRAND JUNCTION CLEAR     60  43  53 E5        30.08
RIFLE          CLEAR     56  43  61 SW3       30.16
MONTROSE       PTCLDY    62  40  44 SE10      30.18
CORTEZ         CLEAR     55  49  80 CALM      30.19
PAGE, AZ       CLOUDY    75  54  47 SE6       30.07
GRAND CANYON   LGT RAIN  64  48  56 NE5       30.20
KINGMAN        CLOUDY    72  59  63 E5        30.01F
FLAGSTAFF      CLOUDY    58  56  93 CALM      30.25F

$$

REGIONAL REPORTS    NEVADA/IDAHO/WYOMING

CITY           SKY/WX    TMP DP  RH WIND       PRES   REMARKS
LAS VEGAS, NV  MOCLDY    85  54  34 SW10      29.87
ELY            CLEAR     63  37  38 S13       30.14
ELKO           CLEAR     63  36  36 E5        30.01
POCATELLO, ID  CLEAR     58  43  57 N9        29.98
BURLEY         PTCLDY    59  46  62 NE6       29.93
EVANSTON, WY   CLEAR     60  37  42 S7        30.21
ROCK SPRINGS   CLEAR     61  36  39 SE7       30.20

$$



USA.gov is the U.S. government's official web portal to all federal, state and local government web resources and services.